Nanortalik

KL  EN  DA
ASIAQ
Weather Now GREENLAND SURVEY
Updated [WGT/WGST] Temperature [°C] Wind [m/s] Air pressure [hPa] Relative humidity [%] Precipitation [mm]
Present Wind chill Speed Max
20.08 13:00n/an/a2,4 ⇑4,01008n/a0,0
20.08 12:00n/an/a2,2 ⇖3,11008n/a0,0
20.08 11:00n/an/a2,2 ⇑3,81008n/a0,0
20.08 10:00n/an/a0,9 ⇐2,11007n/a0,0
20.08 09:00n/an/a2,3 ⇘3,11007n/a0,0
20.08 08:00n/an/a3,3 ⇓5,81007n/a0,0
20.08 07:00n/an/a3,8 ⇓5,51007n/a0,0
20.08 06:00n/an/a2,2 ⇓4,31006n/a0,0
20.08 05:00n/an/a2,1 ⇓3,41006n/a0,0
20.08 04:00n/an/a1,6 ⇘2,41007n/a0,0
20.08 03:00n/an/a1,5 ⇘2,91007n/a0,0
20.08 02:00n/an/a2,2 ⇘3,41007n/a0,0
20.08 01:00n/an/a2,5 ⇘3,51007n/a0,0
20.08 00:00n/an/a2,2 ⇓3,41007n/a0,0
19.08 23:00n/an/a2,9 ⇓5,11007n/a0,0
19.08 22:00n/an/a2,8 ⇓4,41007n/a0,0
19.08 21:00n/an/a2,0 ⇘4,51007n/a0,0
19.08 20:00n/an/a2,6 ⇓4,01007n/a0,0
19.08 19:00n/an/a3,8 ⇓5,81007n/a0,0
19.08 18:00n/an/a3,6 ⇓4,91007n/a0,0
19.08 17:00n/an/a3,5 ⇓4,61007n/a0,0
19.08 16:00n/an/a2,0 ⇙3,81008n/a0,0
19.08 15:00n/an/a2,8 ⇖4,41007n/a0,0
19.08 14:00n/an/a2,8 ⇖3,91008n/a0,0
19.08 13:00n/an/a2,4 ⇖3,61008n/a0,0
Position: (60.14111111,-45.23444444)

[Back]